User: anonymous   Login
Location: Unspecified
(0.0000°N, 0.0000°E)
Time: 20:08:42
(UTC+00:00)
Language:

FAISAT-2V - Orbit

View from above orbital plane
View from above orbital plane
View from above satellite
View from above satellite

Ground track
Ground track

The orbit data is extracted from the following two-line orbital elements,

1 24954U 97052B   19341.53025017  .00000047  00000-0  30329-4 0  9990
2 24954  82.9211 330.3677 0039543 174.2625 307.2625 13.79996196118206
Epoch (UTC): 07 December 2019 12:43:33
Eccentricity: 0.0039543
inclination: 82.9211°
perigee height: 935 km
apogee height: 993 km
right ascension of ascending node: 330.3677°
argument of perigee: 174.2625°
revolutions per day: 13.79996196
mean anomaly at epoch: 307.2625°
orbit number at epoch: 11820

The dashed part of the orbit path shows where the satellite is in the earth's shadow,  

DLR